Burnsville, North Carolina, United States (28714)
Lat: 35.92N, Lon: 82.3W
Wx Zone: NCZ049
Local Info
Past Weather Observations for Today

NOTE: This archive is for the closest National Weather Service station to Burnsville. Information may differ from the station used for current weather conditions.

Click here for Long-term Archive

Time Weather Temperature Dewpoint Humidity Pressure Winds Precip Visibility
19:54
Clear
75°F / 24°C 70°F / 21°C 83% 30.18 in
(1022 mb)
Calm 0.00 in
(0.00 mm)
10SM
18:54
Mostly Cloudy
79°F / 26°C 70°F / 21°C 74% 30.18 in
(1022 mb)
Calm - 10SM
17:54
Clear
79°F / 26°C 68°F / 20°C 70% 30.18 in
(1022 mb)
S 3.5 mph
(S 6 kph)
0.00 in
(0.00 mm)
10SM
16:54
Partly Cloudy
Light Rain
79°F / 26°C 66°F / 19°C 65% 30.18 in
(1022 mb)
S 4.6 mph
(S 7 kph)
0.00 in
(0.00 mm)
10SM
15:54
Partly Cloudy
79°F / 26°C 64°F / 18°C 61% 30.18 in
(1022 mb)
S 8.1 mph
(S 13 kph)
- 10SM
15:31
Mostly Cloudy
79°F / 26°C 64°F / 18°C 61% 30.18 in
(1022 mb)
S 15 mph
(S 24 kph)
- 10SM
14:54
Mostly Cloudy
Thunder Storms
88°F / 31°C 66°F / 19°C 49% 30.18 in
(1022 mb)
N 11.5 mph
(N 19 kph)
- 10SM
14:44
Mostly Cloudy
Thunder Storms
88°F / 31°C 66°F / 19°C 49% 30.18 in
(1022 mb)
NW 9.2 mph
(NW 15 kph)
- 10SM
14:22
Partly Cloudy
86°F / 30°C 66°F / 19°C 52% 30.18 in
(1022 mb)
N 10.4 mph
(N 17 kph)
- 10SM
14:07
Partly Cloudy
Thunder Storms
88°F / 31°C 66°F / 19°C 49% 30.18 in
(1022 mb)
NNW 10.4 mph
(NNW 17 kph)
- 10SM
13:54
Partly Cloudy
86°F / 30°C 66°F / 19°C 52% 30.18 in
(1022 mb)
NNW 8.1 mph
(NNW 13 kph)
- 10SM
12:54
Clear
84°F / 29°C 66°F / 19°C 55% 30.21 in
(1023 mb)
NNW 9.2 mph
(NNW 15 kph)
- 10SM
11:54
Clear
84°F / 29°C 64°F / 18°C 51% 30.21 in
(1023 mb)
N 16.1 mph
(N 26 kph)
- 10SM
10:54
Clear
82°F / 28°C 64°F / 18°C 55% 30.21 in
(1023 mb)
NNW 8.1 mph
(NNW 13 kph)
- 10SM
09:54
Clear
75°F / 24°C 63°F / 17°C 65% 30.24 in
(1024 mb)
N 11.5 mph
(N 19 kph)
- 10SM
08:54
Clear
73°F / 23°C 61°F / 16°C 65% 30.21 in
(1023 mb)
N 13.8 mph
(N 22 kph)
- 10SM
07:54
Clear
68°F / 20°C 63°F / 17°C 83% 30.21 in
(1023 mb)
N 12.7 mph
(N 20 kph)
- 10SM
06:54
Partly Cloudy
64°F / 18°C 63°F / 17°C 94% 30.21 in
(1023 mb)
N 5.8 mph
(N 9 kph)
- 10SM
06:02
Partly Cloudy
64°F / 18°C 63°F / 17°C 94% 30.21 in
(1023 mb)
N 9.2 mph
(N 15 kph)
- 10SM
05:54
Clear
64°F / 18°C 63°F / 17°C 94% 30.18 in
(1022 mb)
N 10.4 mph
(N 17 kph)
- 10SM
05:26
Partly Cloudy
64°F / 18°C 63°F / 17°C 94% 30.18 in
(1022 mb)
N 3.5 mph
(N 6 kph)
- 10SM
04:54
Clear
64°F / 18°C 63°F / 17°C 94% 30.15 in
(1021 mb)
Calm - 10SM
03:54
Clear
64°F / 18°C 63°F / 17°C 94% 30.15 in
(1021 mb)
N 9.2 mph
(N 15 kph)
- 10SM
02:54
Clear
64°F / 18°C 63°F / 17°C 94% 30.15 in
(1021 mb)
NNW 9.2 mph
(NNW 15 kph)
- 10SM
01:54
Clear
66°F / 19°C 63°F / 17°C 88% 30.15 in
(1021 mb)
NNW 5.8 mph
(NNW 9 kph)
- 10SM
00:54
Clear
68°F / 20°C 61°F / 16°C 78% 30.15 in
(1021 mb)
N 10.4 mph
(N 17 kph)
- 10SM
Time Weather Temperature Dewpoint Humidity Pressure Winds Precip Visibility


Weather for websites

WeatherForYou.com, LLC is not responsible for any damages or problems caused by this service. Current weather conditions are obtained from the closest station including government and personal stations which may have varying degrees of accuracy. Weather forecasts are derived from the NOAA NDFD. Like all things, this site belongs to Jesus Christ... He just trusts me to maintain it. If you have any questions or comments email webmaster@weatherforyou.com

Copyright © 2014, WeatherForYou.com LLC. All rights reserved.